Miscellaneous Local Product
Issued by NWS Hastings, NE

Home | Current Version | Previous Version | Text Only | Print | Product List | Glossary Off
Versions: 1 2 3 4 5 6 7 8 9 10 11 12 13 14 15 16 17 18 19 20 21 22 23 24 25 26 27 28 29 30 31 32 33 34 35 36 37 38 39 40 41 42 43 44 45 46 47 48 49 50

770
AXUS43 KGID 250502
MISGRI

GID CWA HOURLY WEATHER ROUNDUP
NATIONAL WEATHER SERVICE HASTINGS NE
1200 AM CDT SUN JUN 25 2017

NOTE: "FAIR" INDICATES FEW OR NO CLOUDS BELOW 12,000 FEET WITH NO
SIGNIFICANT WEATHER AND/OR OBSTRUCTIONS TO VISIBILITY.

...SOUTH CENTRAL NEBRASKA...

CITY           SKY/WX    TMP DP  RH WIND       PRES   REMARKS
GRAND ISLAND   CLEAR     57  44  62 W6        30.26R
HASTINGS       MOCLDY    58  45  62 CALM      30.27R
KEARNEY        PTCLDY    63  43  48 SW6       30.28R
ORD            CLEAR     50  41  71 NW3       30.26R
YORK           CLEAR     57  46  67 NW7       30.25R
AURORA         CLEAR     54  46  74 W6        30.25R
LEXINGTON      CLEAR     54  43  68 CALM      30.28S
HOLDREGE       CLEAR     59  42  53 CALM      30.28S
HEBRON         CLEAR     60  50  68 SW5       30.24S

...NEBRASKA PANHANDLE...

CITY           SKY/WX    TMP DP  RH WIND       PRES   REMARKS
CHADRON        PTCLDY    54  40  59 N6        30.33R
ALLIANCE       CLEAR     54  39  57 E8        30.33R
SCOTTSBLUFF    CLOUDY    57  41  55 NE6       30.33R
SIDNEY         CLEAR     52  38  58 E7        30.35S

...WESTERN AND NORTH CENTRAL NEBRASKA...

CITY           SKY/WX    TMP DP  RH WIND       PRES   REMARKS
VALENTINE      CLEAR     58  30  34 NE8       30.31R
AINSWORTH      CLEAR     53  36  52 NE6       30.31R
ONEILL         CLEAR     55  38  53 N6        30.29R
BROKEN BOW     CLEAR     51  42  71 N8        30.28R
IMPERIAL       CLEAR     54  46  74 E9        30.32R
NORTH PLATTE   CLEAR     49  40  71 CALM      30.30R
MCCOOK         PTCLDY    58  51  78 N5        30.30R

...EASTERN NEBRASKA...

CITY           SKY/WX    TMP DP  RH WIND       PRES   REMARKS
NORFOLK        PTCLDY    58  37  45 N6        30.25R
SO SIOUX CITY  CLEAR     56  43  61 NW7       30.22R
TEKAMAH        CLEAR     55  39  54 N8        30.21R
COLUMBUS       CLEAR     58  43  57 CALM      30.24R
ALBION         CLEAR     52  40  63 N5        30.26R
OMAHA EPPLEY   CLEAR     60  46  59 N5        30.20R
OFFUTT AFB     CLEAR     57  46  65 N3        30.19R
MILLARD        CLEAR     65  46  50 NW5       30.20R
LINCOLN        PTCLDY    64  43  46 NW6       30.23R
NEBRASKA CITY  CLEAR     62  49  62 NW6       30.20R
BEATRICE       PTCLDY    59  50  72 CALM      30.22R
FALLS CITY     PTCLDY    62  46  55 W8        30.18R

...NORTHERN KANSAS...

CITY           SKY/WX    TMP DP  RH WIND       PRES   REMARKS
GOODLAND       CLOUDY    60  49  66 E9        30.31S
HILL CITY      CLOUDY    64  52  64 NE6       30.30R
NORTON         CLEAR     59  43  55 CALM      30.27S
PHILLIPSBURG   CLEAR     61  55  82 CALM      30.27S
SMITH CENTER   CLEAR     63  54  72 N5        30.27R
HAYS           PTCLDY    63  50  62 E5        30.27R
RUSSELL        CLOUDY    66  46  48 E8        30.25S
CONCORDIA      CLOUDY    65  51  60 SW8       30.24S
SALINA         CLOUDY    74  46  36 SE6       30.26R
TOPEKA         CLOUDY    69  56  62 CALM      30.21R



USA.gov is the U.S. government's official web portal to all federal, state and local government web resources and services.